[ hide orbit diagram ]
For accurate long-term ephemerides, please instead use our Horizons system.This orbit viewer was implemented using two-body methods, and hence should not be used for determining accurate long-term trajectories (over several years or decades) or planetary encounter circumstances.
Orbital Elements at Epoch 2459000.5 (2020-May-31.0) TDB
Reference: JPL 19 (heliocentric ecliptic J2000)
Element | Value | Uncertainty (1-sigma) | Units |
e | .06011874983883175 | 4.9081e-08 | |
a | 2.99948555043063 | 3.7884e-08 | au |
q | 2.819160228979101 | 1.6259e-07 | au |
i | 9.821011210676023 | 5.0253e-06 | deg |
node | 158.9241385943331 | 3.1141e-05 | deg |
peri | 267.3653663664587 | 5.7278e-05 | deg |
M | 8.197069275988168 | 4.5501e-05 | deg |
tp | 2458957.295926846375 (2020-Apr-17.79592685) | 0.00023988 | TDB |
period | 1897.442343309936 5.19 | 3.5947e-05 9.842e-08 | d yr |
n | .1897290851916 | 3.5945e-09 | deg/d |
Q | 3.17981087188216 | 4.0161e-08 | au |
|
| | Orbit Determination Parameters
Additional Information
|
[ hide covariance matrix ]
Orbital Elements at Epoch 2457623.5 (2016-Aug-23.0) TDB
Reference: JPL 19 (heliocentric ecliptic J2000)
Element | Value | Uncertainty (1-sigma) | Units |
e | .05751224612602821 | 4.8833e-08 | |
q | 2.830218838884845 | 1.6158e-07 | au |
tp | 2457060.004066426807 (2015-Feb-06.50406643) | 0.0002594 | TDB |
node | 159.0025758743653 | 3.1069e-05 | deg |
peri | 267.5605653601807 | 5.9382e-05 | deg |
i | 9.828126105028606 | 5.0298e-06 | deg |
|
| | Orbit Determination Parameters
Additional Information
|
Orbit Covariance (6×6)
|
|
e |
q |
tp |
node |
peri |
i |
e |
2.384620650153027E-15 |
-7.713115962088544E-15 |
-1.407662886902425E-12 |
1.843038543589351E-14 |
-3.096374868675601E-13 |
-4.832320609165297E-15 |
q |
-7.713115962088544E-15 |
2.610936390261413E-14 |
2.042376511761178E-12 |
-5.644614631684207E-14 |
5.754675450373861E-13 |
1.718185093670057E-14 |
tp |
-1.407662886902425E-12 |
2.042376511761178E-12 |
6.728780063084681E-8 |
-9.170872485524794E-11 |
1.315831713179235E-8 |
1.455498555581594E-11 |
node |
1.843038543589351E-14 |
-5.644614631684207E-14 |
-9.170872485524794E-11 |
9.652572983035086E-10 |
-9.684030011832562E-10 |
2.703742414098296E-11 |
peri |
-3.096374868675601E-13 |
5.754675450373861E-13 |
1.315831713179235E-8 |
-9.684030011832562E-10 |
3.52622190732637E-9 |
-2.365482394303656E-11 |
i |
-4.832320609165297E-15 |
1.718185093670057E-14 |
1.455498555581594E-11 |
2.703742414098296E-11 |
-2.365482394303656E-11 |
2.529936716037532E-11 |
|
Physical Parameter Table
Parameter |
Symbol |
Value |
Units |
Sigma |
Reference |
Notes |
absolute magnitude |
H |
15.7 |
|
n/a |
MPO455947 |
|
|
413758 (2006 DN113) Discovered 2006-Feb-27 by Spacewatch at Kitt Peak |
Reference: | Last Updated: 2014-11-10 |
|
|